START_TIME,STEP,MOV.,A39,t_acc.,A33,t_acc.,P32,t_acc.,P31,t_acc.
1979-07-15 06:00:22.940 ,0,0,7.,0.8,0.,0.8,0.,0.8,360.,0.8
1979-07-15 06:00:23.740 ,0,0,4.,0.8,0.,0.8,0.,0.8,456.,0.8
1979-07-15 06:00:24.540 ,0,0,3.,0.8,0.,0.8,0.,0.8,512.,0.8
1979-07-15 06:00:25.340 ,0,0,2.,0.8,0.,0.8,0.,0.8,456.,0.8
1979-07-15 06:00:26.140 ,0,0,5.,0.8,0.,0.8,0.,0.8,472.,0.8
1979-07-15 06:00:26.940 ,0,0,5.,0.8,0.,0.8,0.,0.8,472.,0.8
1979-07-15 06:00:27.740 ,0,0,4.,0.8,0.,0.8,0.,0.8,488.,0.8
1979-07-15 06:00:28.540 ,0,0,2.,0.8,0.,0.8,0.,0.8,472.,0.8
1979-07-15 06:00:29.340 ,0,0,4.,0.8,0.,0.8,0.,0.8,496.,0.8
1979-07-15 06:00:30.140 ,0,0,2.,0.8,0.,0.8,0.,0.8,528.,0.8
1979-07-15 06:00:30.940 ,0,0,2.,0.8,0.,0.8,0.,0.8,544.,0.8
1979-07-15 06:00:31.740 ,0,0,1.,0.8,0.,0.8,0.,0.8,488.,0.8
1979-07-15 06:00:32.540 ,0,0,0.,0.8,0.,0.8,0.,0.8,504.,0.8
1979-07-15 06:00:33.340 ,0,0,0.,0.8,0.,0.8,0.,0.8,496.,0.8
1979-07-15 06:00:34.140 ,0,0,3.,0.8,0.,0.8,0.,0.8,544.,0.8
1979-07-15 06:00:34.940 ,0,0,4.,0.8,0.,0.8,1.,0.8,504.,0.8
1979-07-15 06:00:35.740 ,0,0,2.,0.8,0.,0.8,0.,0.8,472.,0.8
1979-07-15 06:00:36.540 ,0,0,8.,0.8,0.,0.8,0.,0.8,480.,0.8
1979-07-15 06:00:37.340 ,0,0,5.,0.8,0.,0.8,0.,0.8,504.,0.8
1979-07-15 06:00:38.140 ,0,0,3.,0.8,0.,0.8,0.,0.8,496.,0.8
1979-07-15 06:00:38.940 ,0,0,6.,0.8,0.,0.8,0.,0.8,472.,0.8
1979-07-15 06:00:39.740 ,0,0,3.,0.8,0.,0.8,0.,0.8,512.,0.8
1979-07-15 06:00:40.540 ,0,0,6.,0.8,0.,0.8,0.,0.8,488.,0.8
1979-07-15 06:00:41.340 ,0,0,1.,0.8,0.,0.8,0.,0.8,504.,0.8
1979-07-15 06:00:42.140 ,0,0,4.,0.8,1.,0.8,1.,0.8,544.,0.8
1979-07-15 06:00:42.940 ,0,0,3.,0.8,0.,0.8,0.,0.8,528.,0.8
1979-07-15 06:00:43.740 ,0,0,2.,0.8,1.,0.8,0.,0.8,464.,0.8
1979-07-15 06:00:44.540 ,0,0,1.,0.8,0.,0.8,0.,0.8,512.,0.8
1979-07-15 06:00:45.340 ,0,0,1.,0.8,0.,0.8,0.,0.8,544.,0.8
1979-07-15 06:00:46.140 ,0,0,4.,0.8,0.,0.8,0.,0.8,488.,0.8
1979-07-15 06:00:46.940 ,4,0,3.,0.8,0.,0.8,0.,0.8,496.,0.8
1979-07-15 06:00:47.740 ,4,0,4.,0.8,0.,0.8,0.,0.8,496.,0.8
1979-07-15 06:00:48.540 ,4,0,2.,0.8,0.,0.8,0.,0.8,592.,0.8
1979-07-15 06:00:49.340 ,4,0,0.,0.8,1.,0.8,0.,0.8,512.,0.8
1979-07-15 06:00:50.140 ,4,0,4.,0.8,0.,0.8,0.,0.8,512.,0.8
1979-07-15 06:00:50.940 ,4,0,2.,0.8,0.,0.8,0.,0.8,512.,0.8
1979-07-15 06:00:51.740 ,4,0,3.,0.8,0.,0.8,0.,0.8,528.,0.8
1979-07-15 06:00:52.540 ,4,0,3.,0.8,0.,0.8,0.,0.8,544.,0.8
1979-07-15 06:00:53.340 ,4,0,4.,0.8,0.,0.8,0.,0.8,512.,0.8
1979-07-15 06:00:54.140 ,4,0,6.,0.8,1.,0.8,0.,0.8,496.,0.8
1979-07-15 06:00:54.940 ,4,0,2.,0.8,0.,0.8,1.,0.8,528.,0.8
1979-07-15 06:00:55.740 ,4,0,4.,0.8,0.,0.8,0.,0.8,504.,0.8
1979-07-15 06:00:56.540 ,4,0,5.,0.8,0.,0.8,0.,0.8,512.,0.8
1979-07-15 06:00:57.340 ,4,0,4.,0.8,0.,0.8,0.,0.8,456.,0.8
1979-07-15 06:00:58.140 ,4,0,3.,0.8,0.,0.8,0.,0.8,464.,0.8
1979-07-15 06:00:58.940 ,4,0,1.,0.8,0.,0.8,1.,0.8,472.,0.8
1979-07-15 06:00:59.740 ,4,0,6.,0.8,0.,0.8,0.,0.8,368.,0.8
1979-07-15 06:01:00.540 ,4,0,6.,0.8,0.,0.8,0.,0.8,368.,0.8
1979-07-15 06:01:01.340 ,4,0,5.,0.8,0.,0.8,0.,0.8,360.,0.8
1979-07-15 06:01:02.140 ,4,0,4.,0.8,0.,0.8,0.,0.8,328.,0.8
1979-07-15 06:01:02.940 ,4,0,11.,0.8,0.,0.8,0.,0.8,384.,0.8
1979-07-15 06:01:03.740 ,4,0,11.,0.8,0.,0.8,0.,0.8,360.,0.8
1979-07-15 06:01:04.540 ,4,0,4.,0.8,0.,0.8,0.,0.8,400.,0.8
1979-07-15 06:01:05.340 ,4,0,9.,0.8,1.,0.8,1.,0.8,376.,0.8
1979-07-15 06:01:06.140 ,4,0,25.,0.8,0.,0.8,1.,0.8,528.,0.8
1979-07-15 06:01:06.940 ,4,0,19.,0.8,0.,0.8,2.,0.8,504.,0.8
1979-07-15 06:01:07.740 ,4,0,17.,0.8,0.,0.8,0.,0.8,512.,0.8
1979-07-15 06:01:08.540 ,4,0,25.,0.8,0.,0.8,1.,0.8,528.,0.8
1979-07-15 06:01:09.340 ,4,0,32.,0.8,0.,0.8,0.,0.8,512.,0.8
1979-07-15 06:01:10.140 ,4,0,30.,0.8,0.,0.8,1.,0.8,504.,0.8
1979-07-15 06:01:10.940 ,7,0,42.,0.8,0.,0.8,2.,0.8,504.,0.8
1979-07-15 06:01:11.740 ,7,0,76.,0.8,0.,0.8,3.,0.8,544.,0.8
1979-07-15 06:01:12.540 ,7,0,96.,0.8,1.,0.8,2.,0.8,544.,0.8
1979-07-15 06:01:13.340 ,7,0,74.,0.8,1.,0.8,2.,0.8,608.,0.8
1979-07-15 06:01:14.140 ,7,0,74.,0.8,2.,0.8,0.,0.8,560.,0.8
1979-07-15 06:01:14.940 ,7,0,94.,0.8,0.,0.8,0.,0.8,560.,0.8
1979-07-15 06:01:15.740 ,7,0,80.,0.8,1.,0.8,1.,0.8,560.,0.8
1979-07-15 06:01:16.540 ,7,0,74.,0.8,1.,0.8,0.,0.8,592.,0.8
1979-07-15 06:01:17.340 ,7,0,68.,0.8,0.,0.8,2.,0.8,528.,0.8
1979-07-15 06:01:18.140 ,7,0,43.,0.8,0.,0.8,0.,0.8,512.,0.8
1979-07-15 06:01:18.940 ,7,0,40.,0.8,2.,0.8,2.,0.8,512.,0.8
1979-07-15 06:01:19.740 ,7,0,55.,0.8,0.,0.8,1.,0.8,544.,0.8
1979-07-15 06:01:20.540 ,7,0,42.,0.8,0.,0.8,0.,0.8,592.,0.8
1979-07-15 06:01:21.340 ,7,0,25.,0.8,0.,0.8,0.,0.8,528.,0.8
1979-07-15 06:01:22.140 ,7,0,39.,0.8,0.,0.8,0.,0.8,504.,0.8
1979-07-15 06:01:22.940 ,7,0,31.,0.8,0.,0.8,0.,0.8,544.,0.8
1979-07-15 06:01:23.740 ,7,0,4.,0.8,0.,0.8,0.,0.8,424.,0.8
1979-07-15 06:01:24.540 ,7,0,0.,0.8,0.,0.8,0.,0.8,440.,0.8
1979-07-15 06:01:25.340 ,7,0,0.,0.8,0.,0.8,0.,0.8,456.,0.8
1979-07-15 06:01:26.140 ,7,0,0.,0.8,0.,0.8,0.,0.8,440.,0.8
1979-07-15 06:01:26.940 ,7,0,0.,0.8,0.,0.8,0.,0.8,424.,0.8
1979-07-15 06:01:27.740 ,7,0,0.,0.8,0.,0.8,0.,0.8,456.,0.8
1979-07-15 06:01:28.540 ,7,0,0.,0.8,0.,0.8,0.,0.8,456.,0.8
1979-07-15 06:01:29.340 ,7,0,0.,0.8,0.,0.8,0.,0.8,424.,0.8
1979-07-15 06:01:30.140 ,7,0,0.,0.8,0.,0.8,0.,0.8,456.,0.8
1979-07-15 06:01:30.940 ,7,0,0.,0.8,0.,0.8,0.,0.8,472.,0.8
1979-07-15 06:01:31.740 ,7,0,0.,0.8,0.,0.8,0.,0.8,480.,0.8
1979-07-15 06:01:32.540 ,7,0,0.,0.8,0.,0.8,0.,0.8,400.,0.8
1979-07-15 06:01:33.340 ,7,0,0.,0.8,0.,0.8,0.,0.8,416.,0.8
1979-07-15 06:01:34.140 ,7,0,0.,0.8,0.,0.8,0.,0.8,440.,0.8
1979-07-15 06:01:34.940 ,3,0,1.,0.8,0.,0.8,0.,0.8,432.,0.8
1979-07-15 06:01:35.740 ,3,0,45.,0.8,0.,0.8,1.,0.8,480.,0.8
1979-07-15 06:01:36.540 ,3,0,52.,0.8,0.,0.8,0.,0.8,528.,0.8
1979-07-15 06:01:37.340 ,3,0,44.,0.8,0.,0.8,1.,0.8,528.,0.8
1979-07-15 06:01:38.140 ,3,0,37.,0.8,0.,0.8,0.,0.8,544.,0.8
1979-07-15 06:01:38.940 ,3,0,35.,0.8,2.,0.8,0.,0.8,560.,0.8
1979-07-15 06:01:39.740 ,3,0,38.,0.8,0.,0.8,1.,0.8,544.,0.8
1979-07-15 06:01:40.540 ,3,0,40.,0.8,0.,0.8,0.,0.8,512.,0.8
1979-07-15 06:01:41.340 ,3,0,59.,0.8,0.,0.8,1.,0.8,544.,0.8
1979-07-15 06:01:42.140 ,3,0,94.,0.8,2.,0.8,0.,0.8,576.,0.8
1979-07-15 06:01:42.940 ,3,0,88.,0.8,2.,0.8,2.,0.8,560.,0.8
1979-07-15 06:01:43.740 ,3,0,94.,0.8,2.,0.8,1.,0.8,576.,0.8
1979-07-15 06:01:44.540 ,3,0,84.,0.8,0.,0.8,0.,0.8,560.,0.8
1979-07-15 06:01:45.340 ,3,0,74.,0.8,1.,0.8,0.,0.8,560.,0.8
1979-07-15 06:01:46.140 ,3,0,80.,0.8,1.,0.8,2.,0.8,528.,0.8
1979-07-15 06:01:46.940 ,3,0,84.,0.8,2.,0.8,1.,0.8,560.,0.8
1979-07-15 06:01:47.740 ,3,0,34.,0.8,0.,0.8,2.,0.8,528.,0.8
1979-07-15 06:01:48.540 ,3,0,21.,0.8,1.,0.8,3.,0.8,528.,0.8
1979-07-15 06:01:49.340 ,3,0,29.,0.8,0.,0.8,0.,0.8,544.,0.8
1979-07-15 06:01:50.140 ,3,0,24.,0.8,0.,0.8,1.,0.8,528.,0.8
1979-07-15 06:01:50.940 ,3,0,26.,0.8,0.,0.8,2.,0.8,528.,0.8
1979-07-15 06:01:51.740 ,3,0,26.,0.8,0.,0.8,0.,0.8,504.,0.8
1979-07-15 06:01:52.540 ,3,0,21.,0.8,0.,0.8,0.,0.8,512.,0.8
1979-07-15 06:01:53.340 ,3,0,14.,0.8,0.,0.8,0.,0.8,440.,0.8
1979-07-15 06:01:54.140 ,3,0,4.,0.8,0.,0.8,1.,0.8,400.,0.8
1979-07-15 06:01:54.940 ,3,0,2.,0.8,1.,0.8,0.,0.8,384.,0.8
1979-07-15 06:01:55.740 ,3,0,3.,0.8,0.,0.8,0.,0.8,328.,0.8
1979-07-15 06:01:56.540 ,3,0,6.,0.8,1.,0.8,0.,0.8,360.,0.8
1979-07-15 06:01:57.340 ,3,0,7.,0.8,0.,0.8,0.,0.8,376.,0.8
1979-07-15 06:01:58.140 ,3,0,7.,0.8,0.,0.8,0.,0.8,376.,0.8
1979-07-15 06:01:58.940 ,0,0,5.,0.8,1.,0.8,0.,0.8,352.,0.8
1979-07-15 06:01:59.740 ,0,0,4.,0.8,0.,0.8,0.,0.8,480.,0.8
1979-07-15 06:02:00.540 ,0,0,3.,0.8,0.,0.8,0.,0.8,528.,0.8
1979-07-15 06:02:01.340 ,0,0,4.,0.8,0.,0.8,0.,0.8,488.,0.8
1979-07-15 06:02:02.140 ,0,0,8.,0.8,0.,0.8,0.,0.8,480.,0.8
1979-07-15 06:02:02.940 ,0,0,1.,0.8,0.,0.8,1.,0.8,480.,0.8
1979-07-15 06:02:03.740 ,0,0,5.,0.8,0.,0.8,0.,0.8,496.,0.8
1979-07-15 06:02:04.540 ,0,0,6.,0.8,1.,0.8,1.,0.8,488.,0.8
1979-07-15 06:02:05.340 ,0,0,4.,0.8,0.,0.8,0.,0.8,512.,0.8
1979-07-15 06:02:06.140 ,0,0,4.,0.8,0.,0.8,0.,0.8,504.,0.8
1979-07-15 06:02:06.940 ,0,0,2.,0.8,0.,0.8,0.,0.8,512.,0.8
1979-07-15 06:02:07.740 ,0,0,5.,0.8,0.,0.8,0.,0.8,496.,0.8
1979-07-15 06:02:08.540 ,0,0,1.,0.8,0.,0.8,0.,0.8,512.,0.8
1979-07-15 06:02:09.340 ,0,0,2.,0.8,0.,0.8,0.,0.8,512.,0.8
1979-07-15 06:02:10.140 ,0,0,2.,0.8,0.,0.8,0.,0.8,544.,0.8
1979-07-15 06:02:10.940 ,0,0,4.,0.8,0.,0.8,0.,0.8,528.,0.8
1979-07-15 06:02:11.740 ,0,0,2.,0.8,0.,0.8,0.,0.8,480.,0.8
1979-07-15 06:02:12.540 ,0,0,1.,0.8,0.,0.8,0.,0.8,464.,0.8
1979-07-15 06:02:13.340 ,0,0,3.,0.8,0.,0.8,0.,0.8,488.,0.8
1979-07-15 06:02:14.140 ,0,0,2.,0.8,0.,0.8,0.,0.8,504.,0.8
1979-07-15 06:02:14.940 ,0,0,2.,0.8,0.,0.8,0.,0.8,496.,0.8
1979-07-15 06:02:15.740 ,0,0,3.,0.8,0.,0.8,0.,0.8,512.,0.8
1979-07-15 06:02:16.540 ,0,0,3.,0.8,0.,0.8,0.,0.8,488.,0.8
1979-07-15 06:02:17.340 ,0,0,3.,0.8,0.,0.8,0.,0.8,512.,0.8
1979-07-15 06:02:18.140 ,0,0,5.,0.8,0.,0.8,0.,0.8,512.,0.8
1979-07-15 06:02:18.940 ,0,0,2.,0.8,0.,0.8,0.,0.8,512.,0.8
1979-07-15 06:02:19.740 ,0,0,1.,0.8,0.,0.8,0.,0.8,512.,0.8
1979-07-15 06:02:20.540 ,0,0,4.,0.8,0.,0.8,0.,0.8,512.,0.8
1979-07-15 06:02:21.340 ,0,0,2.,0.8,0.,0.8,0.,0.8,496.,0.8
1979-07-15 06:02:22.140 ,0,0,3.,0.8,0.,0.8,0.,0.8,504.,0.8
1979-07-15 06:02:22.940 ,4,0,1.,0.8,0.,0.8,0.,0.8,504.,0.8
1979-07-15 06:02:23.740 ,4,0,2.,0.8,0.,0.8,0.,0.8,504.,0.8
1979-07-15 06:02:24.540 ,4,0,4.,0.8,0.,0.8,0.,0.8,544.,0.8
1979-07-15 06:02:25.340 ,4,0,9.,0.8,0.,0.8,0.,0.8,528.,0.8
1979-07-15 06:02:26.140 ,4,0,2.,0.8,0.,0.8,0.,0.8,544.,0.8
1979-07-15 06:02:26.940 ,4,0,2.,0.8,0.,0.8,0.,0.8,528.,0.8
1979-07-15 06:02:27.740 ,4,0,2.,0.8,0.,0.8,0.,0.8,544.,0.8
1979-07-15 06:02:28.540 ,4,0,6.,0.8,0.,0.8,0.,0.8,576.,0.8
1979-07-15 06:02:29.340 ,4,0,2.,0.8,0.,0.8,0.,0.8,472.,0.8
1979-07-15 06:02:30.140 ,4,0,2.,0.8,0.,0.8,0.,0.8,504.,0.8
1979-07-15 06:02:30.940 ,4,0,3.,0.8,1.,0.8,1.,0.8,512.,0.8
1979-07-15 06:02:31.740 ,4,0,3.,0.8,0.,0.8,0.,0.8,528.,0.8
1979-07-15 06:02:32.540 ,4,0,2.,0.8,0.,0.8,0.,0.8,512.,0.8
1979-07-15 06:02:33.340 ,4,0,4.,0.8,1.,0.8,0.,0.8,528.,0.8
1979-07-15 06:02:34.140 ,4,0,1.,0.8,2.,0.8,0.,0.8,512.,0.8
1979-07-15 06:02:34.940 ,4,0,6.,0.8,1.,0.8,0.,0.8,528.,0.8
1979-07-15 06:02:35.740 ,4,0,1.,0.8,0.,0.8,0.,0.8,352.,0.8
1979-07-15 06:02:36.540 ,4,0,8.,0.8,0.,0.8,1.,0.8,368.,0.8
1979-07-15 06:02:37.340 ,4,0,10.,0.8,0.,0.8,1.,0.8,352.,0.8
1979-07-15 06:02:38.140 ,4,0,10.,0.8,0.,0.8,1.,0.8,376.,0.8
1979-07-15 06:02:38.940 ,4,0,10.,0.8,0.,0.8,0.,0.8,352.,0.8
1979-07-15 06:02:39.740 ,4,0,11.,0.8,0.,0.8,1.,0.8,384.,0.8
1979-07-15 06:02:40.540 ,4,0,7.,0.8,0.,0.8,0.,0.8,376.,0.8
1979-07-15 06:02:41.340 ,4,0,21.,0.8,0.,0.8,0.,0.8,464.,0.8
1979-07-15 06:02:42.140 ,4,0,19.,0.8,0.,0.8,0.,0.8,528.,0.8
1979-07-15 06:02:42.940 ,4,0,23.,0.8,0.,0.8,0.,0.8,528.,0.8
1979-07-15 06:02:43.740 ,4,0,24.,0.8,0.,0.8,0.,0.8,512.,0.8
1979-07-15 06:02:44.540 ,4,0,21.,0.8,0.,0.8,1.,0.8,528.,0.8
1979-07-15 06:02:45.340 ,4,0,23.,0.8,0.,0.8,0.,0.8,560.,0.8
1979-07-15 06:02:46.140 ,4,0,26.,0.8,0.,0.8,1.,0.8,512.,0.8
1979-07-15 06:02:46.940 ,7,0,24.,0.8,0.,0.8,0.,0.8,560.,0.8
1979-07-15 06:02:47.740 ,7,0,80.,0.8,0.,0.8,3.,0.8,592.,0.8
1979-07-15 06:02:48.540 ,7,0,90.,0.8,0.,0.8,0.,0.8,592.,0.8
1979-07-15 06:02:49.340 ,7,0,108.,0.8,1.,0.8,0.,0.8,560.,0.8
1979-07-15 06:02:50.140 ,7,0,80.,0.8,0.,0.8,0.,0.8,560.,0.8
1979-07-15 06:02:50.940 ,7,0,88.,0.8,0.,0.8,1.,0.8,592.,0.8
1979-07-15 06:02:51.740 ,7,0,88.,0.8,0.,0.8,2.,0.8,608.,0.8
1979-07-15 06:02:52.540 ,7,0,96.,0.8,1.,0.8,1.,0.8,608.,0.8
1979-07-15 06:02:53.340 ,7,0,80.,0.8,1.,0.8,1.,0.8,592.,0.8
1979-07-15 06:02:54.140 ,7,0,44.,0.8,0.,0.8,1.,0.8,544.,0.8
1979-07-15 06:02:54.940 ,7,0,40.,0.8,0.,0.8,0.,0.8,560.,0.8
1979-07-15 06:02:55.740 ,7,0,37.,0.8,0.,0.8,0.,0.8,544.,0.8
1979-07-15 06:02:56.540 ,7,0,40.,0.8,0.,0.8,1.,0.8,576.,0.8
1979-07-15 06:02:57.340 ,7,0,58.,0.8,0.,0.8,2.,0.8,576.,0.8
1979-07-15 06:02:58.140 ,7,0,43.,0.8,0.,0.8,1.,0.8,592.,0.8
1979-07-15 06:02:58.940 ,7,0,35.,0.8,1.,0.8,0.,0.8,592.,0.8
1979-07-15 06:02:59.740 ,7,0,3.,0.8,0.,0.8,0.,0.8,496.,0.8
1979-07-15 06:03:00.540 ,7,0,0.,0.8,0.,0.8,0.,0.8,472.,0.8
1979-07-15 06:03:01.340 ,7,0,0.,0.8,0.,0.8,0.,0.8,472.,0.8
1979-07-15 06:03:02.140 ,7,0,1.,0.8,0.,0.8,0.,0.8,472.,0.8
1979-07-15 06:03:02.940 ,7,0,0.,0.8,0.,0.8,0.,0.8,472.,0.8
1979-07-15 06:03:03.740 ,7,0,0.,0.8,0.,0.8,0.,0.8,512.,0.8
1979-07-15 06:03:04.540 ,7,0,0.,0.8,0.,0.8,0.,0.8,448.,0.8
1979-07-15 06:03:05.340 ,7,0,0.,0.8,0.,0.8,0.,0.8,488.,0.8
1979-07-15 06:03:06.140 ,7,0,0.,0.8,0.,0.8,0.,0.8,480.,0.8
1979-07-15 06:03:06.940 ,7,0,0.,0.8,0.,0.8,0.,0.8,480.,0.8
1979-07-15 06:03:07.740 ,7,0,0.,0.8,0.,0.8,0.,0.8,472.,0.8
1979-07-15 06:03:08.540 ,7,0,0.,0.8,0.,0.8,0.,0.8,472.,0.8
1979-07-15 06:03:09.340 ,7,0,0.,0.8,0.,0.8,0.,0.8,488.,0.8
1979-07-15 06:03:10.140 ,7,0,0.,0.8,0.,0.8,0.,0.8,472.,0.8
1979-07-15 06:03:10.940 ,3,0,2.,0.8,0.,0.8,0.,0.8,448.,0.8
1979-07-15 06:03:11.740 ,3,0,49.,0.8,1.,0.8,0.,0.8,560.,0.8
1979-07-15 06:03:12.540 ,3,0,42.,0.8,0.,0.8,0.,0.8,624.,0.8
1979-07-15 06:03:13.340 ,3,0,51.,0.8,0.,0.8,0.,0.8,608.,0.8
1979-07-15 06:03:14.140 ,3,0,39.,0.8,0.,0.8,0.,0.8,592.,0.8
1979-07-15 06:03:14.940 ,3,0,43.,0.8,0.,0.8,1.,0.8,576.,0.8
1979-07-15 06:03:15.740 ,3,0,38.,0.8,0.,0.8,0.,0.8,576.,0.8
1979-07-15 06:03:16.540 ,3,0,33.,0.8,0.,0.8,2.,0.8,560.,0.8
1979-07-15 06:03:17.340 ,3,0,70.,0.8,0.,0.8,1.,0.8,624.,0.8
1979-07-15 06:03:18.140 ,3,0,100.,0.8,0.,0.8,0.,0.8,576.,0.8
1979-07-15 06:03:18.940 ,3,0,92.,0.8,0.,0.8,0.,0.8,592.,0.8
1979-07-15 06:03:19.740 ,3,0,86.,0.8,2.,0.8,1.,0.8,576.,0.8
1979-07-15 06:03:20.540 ,3,0,82.,0.8,0.,0.8,1.,0.8,592.,0.8
1979-07-15 06:03:21.340 ,3,0,98.,0.8,2.,0.8,2.,0.8,592.,0.8
1979-07-15 06:03:22.140 ,3,0,86.,0.8,0.,0.8,3.,0.8,608.,0.8
1979-07-15 06:03:22.940 ,3,0,82.,0.8,0.,0.8,6.,0.8,592.,0.8
1979-07-15 06:03:23.740 ,3,0,21.,0.8,0.,0.8,0.,0.8,544.,0.8
1979-07-15 06:03:24.540 ,3,0,21.,0.8,0.,0.8,2.,0.8,528.,0.8
1979-07-15 06:03:25.340 ,3,0,27.,0.8,1.,0.8,0.,0.8,560.,0.8
1979-07-15 06:03:26.140 ,3,0,20.,0.8,1.,0.8,1.,0.8,560.,0.8
1979-07-15 06:03:26.940 ,3,0,25.,0.8,0.,0.8,0.,0.8,560.,0.8
1979-07-15 06:03:27.740 ,3,0,32.,0.8,0.,0.8,0.,0.8,496.,0.8
1979-07-15 06:03:28.540 ,3,0,37.,0.8,1.,0.8,0.,0.8,512.,0.8
1979-07-15 06:03:29.340 ,3,0,25.,0.8,1.,0.8,1.,0.8,472.,0.8
1979-07-15 06:03:30.140 ,3,0,2.,0.8,0.,0.8,0.,0.8,416.,0.8
1979-07-15 06:03:30.940 ,3,0,3.,0.8,0.,0.8,0.,0.8,400.,0.8
1979-07-15 06:03:31.740 ,3,0,5.,0.8,0.,0.8,1.,0.8,400.,0.8
1979-07-15 06:03:32.540 ,3,0,6.,0.8,0.,0.8,0.,0.8,416.,0.8
1979-07-15 06:03:33.340 ,3,0,9.,0.8,0.,0.8,1.,0.8,400.,0.8
1979-07-15 06:03:34.140 ,3,0,10.,0.8,0.,0.8,0.,0.8,400.,0.8
1979-07-15 06:03:34.940 ,0,0,8.,0.8,0.,0.8,0.,0.8,392.,0.8
1979-07-15 06:03:35.740 ,0,0,4.,0.8,0.,0.8,0.,0.8,528.,0.8
1979-07-15 06:03:36.540 ,0,0,5.,0.8,0.,0.8,0.,0.8,544.,0.8
1979-07-15 06:03:37.340 ,0,0,2.,0.8,0.,0.8,0.,0.8,560.,0.8
1979-07-15 06:03:38.140 ,0,0,5.,0.8,0.,0.8,0.,0.8,544.,0.8
1979-07-15 06:03:38.940 ,0,0,4.,0.8,0.,0.8,0.,0.8,512.,0.8
1979-07-15 06:03:39.740 ,0,0,6.,0.8,0.,0.8,0.,0.8,480.,0.8
1979-07-15 06:03:40.540 ,0,0,6.,0.8,0.,0.8,0.,0.8,528.,0.8
1979-07-15 06:03:41.340 ,0,0,9.,0.8,0.,0.8,0.,0.8,560.,0.8
1979-07-15 06:03:42.140 ,0,0,2.,0.8,0.,0.8,0.,0.8,544.,0.8
1979-07-15 06:03:42.940 ,0,0,2.,0.8,0.,0.8,0.,0.8,544.,0.8
1979-07-15 06:03:43.740 ,0,0,3.,0.8,0.,0.8,0.,0.8,560.,0.8
1979-07-15 06:03:44.540 ,0,0,2.,0.8,0.,0.8,0.,0.8,528.,0.8
1979-07-15 06:03:45.340 ,0,0,4.,0.8,0.,0.8,0.,0.8,544.,0.8
1979-07-15 06:03:46.140 ,0,0,2.,0.8,0.,0.8,0.,0.8,560.,0.8
1979-07-15 06:03:46.940 ,0,0,0.,0.8,0.,0.8,0.,0.8,512.,0.8
1979-07-15 06:03:47.740 ,0,0,2.,0.8,0.,0.8,0.,0.8,528.,0.8
1979-07-15 06:03:48.540 ,0,0,2.,0.8,1.,0.8,0.,0.8,544.,0.8
1979-07-15 06:03:49.340 ,0,0,1.,0.8,0.,0.8,0.,0.8,528.,0.8
1979-07-15 06:03:50.140 ,0,0,4.,0.8,0.,0.8,0.,0.8,528.,0.8
1979-07-15 06:03:50.940 ,0,0,2.,0.8,0.,0.8,0.,0.8,560.,0.8
1979-07-15 06:03:51.740 ,0,0,3.,0.8,0.,0.8,0.,0.8,560.,0.8
1979-07-15 06:03:52.540 ,0,0,2.,0.8,0.,0.8,0.,0.8,560.,0.8
1979-07-15 06:03:53.340 ,0,0,2.,0.8,1.,0.8,0.,0.8,528.,0.8
1979-07-15 06:03:54.140 ,0,0,2.,0.8,0.,0.8,0.,0.8,528.,0.8
1979-07-15 06:03:54.940 ,0,0,2.,0.8,0.,0.8,0.,0.8,528.,0.8
1979-07-15 06:03:55.740 ,0,0,1.,0.8,0.,0.8,0.,0.8,528.,0.8
1979-07-15 06:03:56.540 ,0,0,1.,0.8,0.,0.8,2.,0.8,528.,0.8
1979-07-15 06:03:57.340 ,0,0,2.,0.8,0.,0.8,0.,0.8,512.,0.8
1979-07-15 06:03:58.140 ,0,0,3.,0.8,1.,0.8,0.,0.8,576.,0.8
1979-07-15 06:03:58.940 ,4,0,4.,0.8,0.,0.8,1.,0.8,512.,0.8
1979-07-15 06:03:59.740 ,4,0,1.,0.8,0.,0.8,0.,0.8,544.,0.8
1979-07-15 06:04:00.540 ,4,0,2.,0.8,0.,0.8,0.,0.8,560.,0.8
1979-07-15 06:04:01.340 ,4,0,1.,0.8,0.,0.8,1.,0.8,528.,0.8
1979-07-15 06:04:02.140 ,4,0,2.,0.8,0.,0.8,0.,0.8,544.,0.8
1979-07-15 06:04:02.940 ,4,0,2.,0.8,0.,0.8,0.,0.8,512.,0.8
1979-07-15 06:04:03.740 ,4,0,1.,0.8,0.,0.8,0.,0.8,592.,0.8
1979-07-15 06:04:04.540 ,4,0,4.,0.8,0.,0.8,0.,0.8,528.,0.8
1979-07-15 06:04:05.340 ,4,0,4.,0.8,0.,0.8,0.,0.8,560.,0.8
1979-07-15 06:04:06.140 ,4,0,3.,0.8,1.,0.8,0.,0.8,496.,0.8
1979-07-15 06:04:06.940 ,4,0,2.,0.8,1.,0.8,0.,0.8,512.,0.8
1979-07-15 06:04:07.740 ,4,0,4.,0.8,0.,0.8,0.,0.8,512.,0.8
1979-07-15 06:04:08.540 ,4,0,4.,0.8,0.,0.8,1.,0.8,528.,0.8
1979-07-15 06:04:09.340 ,4,0,7.,0.8,1.,0.8,1.,0.8,488.,0.8
1979-07-15 06:04:10.140 ,4,0,3.,0.8,0.,0.8,0.,0.8,512.,0.8
1979-07-15 06:04:10.940 ,4,0,5.,0.8,0.,0.8,1.,0.8,528.,0.8
1979-07-15 06:04:11.740 ,4,0,6.,0.8,0.,0.8,0.,0.8,408.,0.8
1979-07-15 06:04:12.540 ,4,0,9.,0.8,0.,0.8,1.,0.8,432.,0.8
1979-07-15 06:04:13.340 ,4,0,3.,0.8,0.,0.8,0.,0.8,424.,0.8
1979-07-15 06:04:14.140 ,4,0,7.,0.8,0.,0.8,0.,0.8,400.,0.8
1979-07-15 06:04:14.940 ,4,0,9.,0.8,1.,0.8,0.,0.8,416.,0.8
1979-07-15 06:04:15.740 ,4,0,5.,0.8,0.,0.8,0.,0.8,384.,0.8
1979-07-15 06:04:16.540 ,4,0,6.,0.8,0.,0.8,0.,0.8,384.,0.8
1979-07-15 06:04:17.340 ,4,0,19.,0.8,0.,0.8,0.,0.8,456.,0.8
1979-07-15 06:04:18.140 ,4,0,28.,0.8,0.,0.8,0.,0.8,592.,0.8
1979-07-15 06:04:18.940 ,4,0,24.,0.8,0.,0.8,0.,0.8,592.,0.8
1979-07-15 06:04:19.740 ,4,0,25.,0.8,1.,0.8,0.,0.8,592.,0.8
1979-07-15 06:04:20.540 ,4,0,34.,0.8,0.,0.8,0.,0.8,576.,0.8
1979-07-15 06:04:21.340 ,4,0,25.,0.8,0.,0.8,0.,0.8,640.,0.8
1979-07-15 06:04:22.140 ,4,0,30.,0.8,0.,0.8,2.,0.8,608.,0.8
1979-07-15 06:04:22.940 ,7,0,27.,0.8,0.,0.8,0.,0.8,544.,0.8
1979-07-15 06:04:23.740 ,7,0,80.,0.8,0.,0.8,1.,0.8,624.,0.8
1979-07-15 06:04:24.540 ,7,0,76.,0.8,0.,0.8,0.,0.8,608.,0.8
1979-07-15 06:04:25.340 ,7,0,94.,0.8,1.,0.8,2.,0.8,576.,0.8
1979-07-15 06:04:26.140 ,7,0,82.,0.8,0.,0.8,0.,0.8,608.,0.8
1979-07-15 06:04:26.940 ,7,0,86.,0.8,1.,0.8,3.,0.8,608.,0.8
1979-07-15 06:04:27.740 ,7,0,90.,0.8,2.,0.8,1.,0.8,608.,0.8
1979-07-15 06:04:28.540 ,7,0,94.,0.8,1.,0.8,1.,0.8,608.,0.8
1979-07-15 06:04:29.340 ,7,0,78.,0.8,0.,0.8,0.,0.8,576.,0.8
1979-07-15 06:04:30.140 ,7,0,41.,0.8,1.,0.8,1.,0.8,592.,0.8
1979-07-15 06:04:30.940 ,7,0,56.,0.8,0.,0.8,0.,0.8,592.,0.8
1979-07-15 06:04:31.740 ,7,0,44.,0.8,0.,0.8,0.,0.8,576.,0.8
1979-07-15 06:04:32.540 ,7,0,44.,0.8,1.,0.8,1.,0.8,592.,0.8
1979-07-15 06:04:33.340 ,7,0,38.,0.8,0.,0.8,1.,0.8,576.,0.8
1979-07-15 06:04:34.140 ,7,0,51.,0.8,0.,0.8,0.,0.8,560.,0.8
1979-07-15 06:04:34.940 ,7,0,37.,0.8,0.,0.8,0.,0.8,576.,0.8
1979-07-15 06:04:35.740 ,7,0,5.,0.8,0.,0.8,0.,0.8,480.,0.8
1979-07-15 06:04:36.540 ,7,0,0.,0.8,0.,0.8,0.,0.8,472.,0.8
1979-07-15 06:04:37.340 ,7,0,0.,0.8,0.,0.8,0.,0.8,528.,0.8
1979-07-15 06:04:38.140 ,7,0,0.,0.8,0.,0.8,0.,0.8,480.,0.8
1979-07-15 06:04:38.940 ,7,0,0.,0.8,0.,0.8,0.,0.8,472.,0.8
1979-07-15 06:04:39.740 ,7,0,0.,0.8,0.,0.8,0.,0.8,448.,0.8
1979-07-15 06:04:40.540 ,7,0,0.,0.8,0.,0.8,0.,0.8,464.,0.8
1979-07-15 06:04:41.340 ,7,0,0.,0.8,0.,0.8,0.,0.8,480.,0.8
1979-07-15 06:04:42.140 ,7,0,0.,0.8,0.,0.8,0.,0.8,472.,0.8
1979-07-15 06:04:42.940 ,7,0,0.,0.8,0.,0.8,0.,0.8,464.,0.8
1979-07-15 06:04:43.740 ,7,0,0.,0.8,0.,0.8,0.,0.8,472.,0.8
1979-07-15 06:04:44.540 ,7,0,0.,0.8,0.,0.8,0.,0.8,464.,0.8
1979-07-15 06:04:45.340 ,7,0,0.,0.8,0.,0.8,0.,0.8,464.,0.8
1979-07-15 06:04:46.140 ,7,0,0.,0.8,0.,0.8,0.,0.8,448.,0.8
1979-07-15 06:04:46.940 ,3,0,2.,0.8,0.,0.8,0.,0.8,448.,0.8
1979-07-15 06:04:47.740 ,3,0,30.,0.8,1.,0.8,0.,0.8,512.,0.8
1979-07-15 06:04:48.540 ,3,0,49.,0.8,1.,0.8,2.,0.8,528.,0.8
1979-07-15 06:04:49.340 ,3,0,41.,0.8,1.,0.8,0.,0.8,528.,0.8
1979-07-15 06:04:50.140 ,3,0,38.,0.8,0.,0.8,0.,0.8,576.,0.8
1979-07-15 06:04:50.940 ,3,0,53.,0.8,0.,0.8,1.,0.8,528.,0.8
1979-07-15 06:04:51.740 ,3,0,49.,0.8,1.,0.8,0.,0.8,544.,0.8
1979-07-15 06:04:52.540 ,3,0,44.,0.8,1.,0.8,0.,0.8,544.,0.8
1979-07-15 06:04:53.340 ,3,0,78.,0.8,0.,0.8,0.,0.8,576.,0.8
1979-07-15 06:04:54.140 ,3,0,82.,0.8,1.,0.8,2.,0.8,576.,0.8
1979-07-15 06:04:54.940 ,3,0,88.,0.8,1.,0.8,3.,0.8,544.,0.8
1979-07-15 06:04:55.740 ,3,0,86.,0.8,0.,0.8,3.,0.8,560.,0.8
1979-07-15 06:04:56.540 ,3,0,94.,0.8,0.,0.8,2.,0.8,592.,0.8
1979-07-15 06:04:57.340 ,3,0,96.,0.8,0.,0.8,1.,0.8,624.,0.8
1979-07-15 06:04:58.140 ,3,0,98.,0.8,0.,0.8,0.,0.8,576.,0.8
1979-07-15 06:04:58.940 ,3,0,96.,0.8,1.,0.8,1.,0.8,576.,0.8
1979-07-15 06:04:59.740 ,3,0,35.,0.8,0.,0.8,0.,0.8,576.,0.8
1979-07-15 06:05:00.540 ,3,0,22.,0.8,0.,0.8,2.,0.8,592.,0.8
1979-07-15 06:05:01.340 ,3,0,19.,0.8,0.,0.8,1.,0.8,544.,0.8
1979-07-15 06:05:02.140 ,3,0,26.,0.8,0.,0.8,0.,0.8,544.,0.8
1979-07-15 06:05:02.940 ,3,0,22.,0.8,0.,0.8,1.,0.8,576.,0.8
1979-07-15 06:05:03.740 ,3,0,29.,0.8,0.,0.8,1.,0.8,592.,0.8
1979-07-15 06:05:04.540 ,3,0,23.,0.8,0.,0.8,0.,0.8,496.,0.8
1979-07-15 06:05:05.340 ,3,0,15.,0.8,0.,0.8,1.,0.8,464.,0.8
1979-07-15 06:05:06.140 ,3,0,6.,0.8,0.,0.8,0.,0.8,392.,0.8
1979-07-15 06:05:06.940 ,3,0,11.,0.8,2.,0.8,1.,0.8,424.,0.8
1979-07-15 06:05:07.740 ,3,0,13.,0.8,0.,0.8,0.,0.8,360.,0.8
1979-07-15 06:05:08.540 ,3,0,7.,0.8,0.,0.8,0.,0.8,352.,0.8
1979-07-15 06:05:09.340 ,3,0,4.,0.8,0.,0.8,0.,0.8,392.,0.8
1979-07-15 06:05:10.140 ,3,0,5.,0.8,1.,0.8,0.,0.8,392.,0.8
1979-07-15 06:05:10.940 ,0,0,10.,0.8,1.,0.8,0.,0.8,384.,0.8
1979-07-15 06:05:11.740 ,0,0,3.,0.8,1.,0.8,0.,0.8,512.,0.8
1979-07-15 06:05:12.540 ,0,0,6.,0.8,0.,0.8,0.,0.8,528.,0.8
1979-07-15 06:05:13.340 ,0,0,4.,0.8,1.,0.8,0.,0.8,512.,0.8
1979-07-15 06:05:14.140 ,0,0,2.,0.8,0.,0.8,0.,0.8,528.,0.8
1979-07-15 06:05:14.940 ,0,0,4.,0.8,0.,0.8,0.,0.8,544.,0.8
1979-07-15 06:05:15.740 ,0,0,0.,0.8,0.,0.8,0.,0.8,512.,0.8
1979-07-15 06:05:16.540 ,0,0,14.,0.8,0.,0.8,0.,0.8,512.,0.8
1979-07-15 06:05:17.340 ,0,0,0.,0.8,0.,0.8,0.,0.8,528.,0.8
1979-07-15 06:05:18.140 ,0,0,2.,0.8,0.,0.8,0.,0.8,528.,0.8
1979-07-15 06:05:18.940 ,0,0,0.,0.8,1.,0.8,0.,0.8,544.,0.8
1979-07-15 06:05:19.740 ,0,0,2.,0.8,0.,0.8,0.,0.8,544.,0.8
1979-07-15 06:05:20.540 ,0,0,2.,0.8,0.,0.8,1.,0.8,560.,0.8
1979-07-15 06:05:21.340 ,0,0,4.,0.8,1.,0.8,0.,0.8,528.,0.8
1979-07-15 06:05:22.140 ,0,0,0.,0.8,0.,0.8,0.,0.8,528.,0.8
1979-07-15 06:05:22.940 ,0,0,6.,0.8,0.,0.8,0.,0.8,528.,0.8
1979-07-15 06:05:23.740 ,0,0,5.,0.8,0.,0.8,0.,0.8,576.,0.8
1979-07-15 06:05:24.540 ,0,0,3.,0.8,0.,0.8,0.,0.8,544.,0.8
1979-07-15 06:05:25.340 ,0,0,3.,0.8,0.,0.8,0.,0.8,512.,0.8
1979-07-15 06:05:26.140 ,0,0,1.,0.8,0.,0.8,0.,0.8,592.,0.8
1979-07-15 06:05:26.940 ,0,0,2.,0.8,0.,0.8,0.,0.8,528.,0.8
1979-07-15 06:05:27.740 ,0,0,2.,0.8,0.,0.8,0.,0.8,560.,0.8
1979-07-15 06:05:28.540 ,0,0,7.,0.8,0.,0.8,1.,0.8,560.,0.8
1979-07-15 06:05:29.340 ,0,0,4.,0.8,0.,0.8,0.,0.8,504.,0.8
1979-07-15 06:05:30.140 ,0,0,5.,0.8,0.,0.8,0.,0.8,576.,0.8
1979-07-15 06:05:30.940 ,0,0,0.,0.8,0.,0.8,0.,0.8,560.,0.8
1979-07-15 06:05:31.740 ,0,0,2.,0.8,0.,0.8,0.,0.8,576.,0.8
1979-07-15 06:05:32.540 ,0,0,5.,0.8,0.,0.8,0.,0.8,544.,0.8
1979-07-15 06:05:33.340 ,0,0,2.,0.8,0.,0.8,0.,0.8,592.,0.8
1979-07-15 06:05:34.140 ,0,0,4.,0.8,0.,0.8,0.,0.8,560.,0.8
1979-07-15 06:05:34.940 ,0,0,3.,0.8,1.,0.8,3.,0.8,592.,0.8
1979-07-15 06:05:35.740 ,0,0,2.,0.8,0.,0.8,0.,0.8,512.,0.8
1979-07-15 06:05:36.540 ,0,0,2.,0.8,0.,0.8,1.,0.8,544.,0.8
1979-07-15 06:05:37.340 ,0,0,4.,0.8,0.,0.8,0.,0.8,528.,0.8
1979-07-15 06:05:38.140 ,0,0,3.,0.8,0.,0.8,0.,0.8,528.,0.8
1979-07-15 06:05:38.940 ,0,0,1.,0.8,0.,0.8,0.,0.8,544.,0.8